User: anonymous   Login
Location: Kergonan
(48.2337°N, 4.5518°W)
Time: 21:33:50
(UTC+00:00)
Language:

NOSS 2-2 (E) - Orbit

View from above orbital plane
View from above orbital plane
View from above satellite
View from above satellite

Ground track
Ground track

The orbit data is extracted from the following two-line orbital elements,

1 21809U 91076E   20086.80452078 0.00000200  00000-0  40436-4 0    09
2 21809  63.3305 355.1075 0832235  34.8737 325.1262 13.41547263    00
Epoch (UTC): 26 March 2020 19:18:30
Eccentricity: 0.0832235
inclination: 63.3305°
perigee height: 481 km
apogee height: 1726 km
right ascension of ascending node: 355.1075°
argument of perigee: 34.8737°
revolutions per day: 13.41547263
mean anomaly at epoch: 325.1262°
orbit number at epoch: 0

The dashed part of the orbit path shows where the satellite is in the earth's shadow,  

DLR